Regional Weather Roundup
Issued by NWS

Home | Current Version | Previous Version | Graphics & Text | Print | Product List | Glossary On
Versions: 1 2 3 4 5 6 7 8 9 10 11 12 13 14 15 16 17 18 19 20 21 22 23 24 25 26 27 28 29 30 31 32 33 34 35 36 37 38 39 40 41 42 43 44 45 46 47 48 49 50
000
ASUS43 KMKX 251059
RWRWI

WISCONSIN REGIONAL WEATHER ROUNDUP
NATIONAL WEATHER SERVICE MILWAUKEE/SULLIVAN WI
600 AM CDT FRI JUL 25 2014

NOTE: "FAIR" INDICATES FEW OR NO CLOUDS BELOW 12,000 FEET WITH NO
SIGNIFICANT WEATHER AND/OR OBSTRUCTIONS TO VISIBILITY.

WIZ001-002-006>008-014>016-023>028-251200-
NORTHWEST WISCONSIN

CITY           SKY/WX    TMP DP  RH WIND       PRES   REMARKS
SUPERIOR ARPT  CLOUDY    57  55  92 CALM      29.83F
ASHLAND        CLOUDY    62  60  93 CALM      29.88S
HAYWARD        CLOUDY    64  60  87 SE5       29.88F
SIREN          CLOUDY    66  58  75 S6        29.87R
RICE LAKE      CLOUDY    65  58  78 SE7       29.89S
LADYSMITH      CLOUDY    63  60  88 SE5       29.93S
EAU CLAIRE     NOT AVBL
MENOMONIE      CLOUDY    66  59  77 S9        29.90R
NEW RICHMOND   CLOUDY    67  58  73 SW14G23   29.91R
OSCEOLA        CLOUDY    69  60  74 SW21G26   29.91R
$$

WIZ003>005-009-010-017-018-251200-
NORTH CENTRAL WISCONSIN

CITY           SKY/WX    TMP DP  RH WIND       PRES   REMARKS
WOODRUFF       LGT RAIN  62  57  85 S9        29.93F
RHINELANDER    CLOUDY    61  57  87 SW6       29.98R
EAGLE RIVER    MOCLDY    57  54  91 CALM      29.95F
LAND O LAKES   MOCLDY    58  54  88 S3        29.95F
PHILLIPS       CLOUDY    61  58  91 SE5       29.93F
TOMAHAWK       MOCLDY    58  56  93 CALM      29.97R
MEDFORD          N/A     62  59  90 S7        29.95S
MERRILL        MOCLDY    62  59  90 SW6       29.97R
$$

WIZ029-030-035-036-043>047-251200-
CENTRAL WISCONSIN

CITY           SKY/WX    TMP DP  RH WIND       PRES   REMARKS
WAUSAU         LGT RAIN  63  59  87 S6        29.96S
MOSINEE        CLOUDY    63  59  88 E8        29.98F
MARSHFIELD     CLOUDY    62  59  90 S7        29.95F
STEVENS POINT  LGT RAIN  60  55  85 S7        30.00R
WAUPACA        MOCLDY    60  55  83 S5        30.00R
WAUTOMA        NOT AVBL
WISC RAPIDS    LGT RAIN  61  58  90 S6        29.99S
CAMP DOUGLAS   LGT RAIN  63  61  94 SE7       29.97F
$$

WIZ011>013-019>022-031-037>040-048>050-251200-
NORTHEAST WISCONSIN

CITY           SKY/WX    TMP DP  RH WIND       PRES   REMARKS
ANTIGO         MOCLDY    57  56  95 S6        29.98R
STURGEON BAY   CLOUDY    61  46  59 SW8       29.98S
GREEN BAY      CLEAR     62  54  74 SW6       29.99S
MANITOWOC      NOT AVBL
APPLETON       MOCLDY    59  52  77 SW7       30.00F
CLINTONVILLE   PTCLDY    59  52  77 S6        29.98S
OSHKOSH        PTCLDY    60  51  72 SW13      30.01R
$$

WIZ032>034-041-042-053>061-251200-
SOUTHWEST WISCONSIN

CITY           SKY/WX    TMP DP  RH WIND       PRES   REMARKS
LA CROSSE      CLOUDY    69  57  65 S12       29.95S
SPARTA         LGT RAIN  63  57  82 S6        29.94F
VIROQUA        CLOUDY    63  57  83 S10G17    29.98F
BOSCOBEL       LGT RAIN  64  57  78 S10       29.99F
PRAIRIE DU CHI CLOUDY    66  55  68 SE3       29.99F
PLATTEVILLE    MOCLDY    61  58  91 E3        30.05F
$$

WIZ056-057-062-063-064-067-068-251200-
SOUTH CENTRAL WISCONSIN

CITY           SKY/WX    TMP DP  RH WIND       PRES   REMARKS
BARABOO/DELLS  CLOUDY    62  54  75 S9        30.02S
LONE ROCK      NOT AVBL
WATERTOWN      MOCLDY    56  49  78 CALM      30.02R
MADISON        LGT RAIN  63  54  72 SW7       30.05R
MIDDLETON      FAIR      63  52  67 SW10      30.06R
MONROE         CLOUDY    59  52  77 SW15      30.07R
JANESVILLE     MOCLDY    61  48  63 SW8       30.07R
$$

WIZ051-052-058>065-066-070>072-251200-
SOUTHEAST WISCONSIN

CITY           SKY/WX    TMP DP  RH WIND       PRES   REMARKS
MILWAUKEE      MOCLDY    59  46  62 SW9       30.02S
WAUKESHA       PTCLDY    55  45  67 CALM      30.03S
MILWAUKEE/TIMM PTCLDY    59  45  58 SW6       30.03R
RACINE         MOCLDY    59  47  64 SW5       30.04S
BURLINGTON     MOCLDY    53  47  82 SW6       30.03R
KENOSHA        PTCLDY    54  48  80 W7        30.04R
FOND DU LAC    MOCLDY    60  48  64 SW12      30.03R
SHEBOYGAN      PTCLDY    57  48  72 SW6       30.00F
WEST BEND      PTCLDY    59  45  58 CALM      30.02S
JUNEAU         PTCLDY    56  48  74 S6        30.04R
$$

LSZ147-162-251200-
LAKE SUPERIOR

STATION/POSITION TIME  TEMP    WIND        PRES    WAVE
                       AIR SEA DIR/SP/G            HT/PER
                 (UTC) (F)     (DEG/KT/KT) (MB)    (FT/S)
$$

LMZ867-665-643>646-251200-
LAKE MICHIGAN

STATION/POSITION TIME  TEMP    WIND        PRES    WAVE
                       AIR SEA DIR/SP/G            HT/PER
                 (UTC) (F)     (DEG/KT/KT) (MB)    (FT/S)
$$

TC  - TEMPERATURE IN CELSIUS
VSB - VISIBILITY IN STATUTE MILES
WCI - WIND CHILL INDEX
HX  - HEAT INDEX




USA.gov is the U.S. government's official web portal to all federal, state and local government web resources and services.